Punta Gorda, FL

5:30 AM EST on December 10, 2019 (GMT -0500)
Charlotte County

Weather History for KPGD - September, 2019

Change the Weather History Date:

Thursday, September 5, 2019

  Actual Average Record
Temperature  
Mean Temperature 86 °F -  
Max Temperature 93 °F 88 °F 95 °F (1998)
Min Temperature 81 °F 72 °F 72 °F (2003)
Cooling Degree Days 21    
Growing Degree Days 36 (Base 50)    
Moisture  
Dew Point 79 °F    
Average Humidity 79    
Maximum Humidity 94    
Minimum Humidity 59    
Precipitation  
Precipitation 0.00 in - - ()
Sea Level Pressure  
Sea Level Pressure 29.97 in    
Wind  
Wind Speed 9 mph (West)    
Max Wind Speed 16 mph    
Max Gust Speed 22 mph    
Visibility 10 miles    
Events      
Averages and records for this station are not official NWS values.
T = Trace of Precipitation, MM = Missing Value Source: NWS Daily Summary

Daily Weather History Graph

Daily Weather History Graph

Search for Another Location

Airport or City:

Astronomy

Sep. 05, 2019 Rise Set
Actual Time 7:09 AM EDT 7:43 PM EDT
Civil Twilight 6:45 AM EDT 8:07 PM EDT
Nautical Twilight 6:17 AM EDT 8:34 PM EDT
Astronomical Twilight 5:49 AM EDT 9:02 PM EDT
Moon 1:37 PM EDT (9/5) No Moon Set
Length of Visible Light 13h 21m
Length of Day
12h 34m
Waxing Crescent, 45% of the Moon is Illuminated
Sep 5
Waxing Crescent
Sep 5
First Quarter
Sep 14
Full
Sep 21
Last Quarter
Sep 28
New

Hourly Weather History & Observations

Time (EDT) Temp. Heat Index Dew Point Humidity Pressure Visibility Wind Dir Wind Speed Gust Speed Precip Events Conditions
12:53 AM 82.0 °F 91.0 °F 78.1 °F 88% 29.95 in 10.0 mi West 5.8 mph - N/A   Clear
1:53 AM 81.0 °F 88.6 °F 78.1 °F 91% 29.94 in 10.0 mi West 5.8 mph - N/A   Clear
2:53 AM 82.0 °F 91.0 °F 78.1 °F 88% 29.94 in 10.0 mi West 6.9 mph - N/A   Clear
3:53 AM 82.0 °F 91.0 °F 78.1 °F 88% 29.94 in 10.0 mi West 5.8 mph - N/A   Clear
4:53 AM 82.0 °F 91.0 °F 78.1 °F 88% 29.94 in 10.0 mi West 8.1 mph - N/A   Clear
5:53 AM 82.0 °F 91.0 °F 78.1 °F 88% 29.95 in 10.0 mi West 8.1 mph - N/A   Clear
6:53 AM 82.0 °F 91.0 °F 78.1 °F 88% 29.96 in 10.0 mi WSW 8.1 mph - N/A   Clear
7:53 AM 82.9 °F 93.8 °F 79.0 °F 88% 29.98 in 10.0 mi WSW 6.9 mph - N/A   Clear
8:53 AM 86.0 °F 99.3 °F 79.0 °F 79% 29.99 in 10.0 mi West 10.4 mph - N/A   Clear
9:53 AM 86.0 °F 99.3 °F 79.0 °F 79% 30.00 in 10.0 mi West 13.8 mph - N/A   Partly Cloudy
10:53 AM 88.0 °F 103.1 °F 79.0 °F 75% 30.00 in 10.0 mi WNW 12.7 mph 20.7 mph N/A   Partly Cloudy
11:53 AM 90.0 °F 104.5 °F 78.1 °F 68% 30.00 in 10.0 mi West 16.1 mph - N/A   Partly Cloudy
12:22 PM 90.0 °F 104.5 °F 78.1 °F 68% 29.99 in 10.0 mi West 13.8 mph - N/A   Mostly Cloudy
12:34 PM 90.0 °F 104.5 °F 78.1 °F 68% 29.99 in 10.0 mi West 15.0 mph - N/A   Scattered Clouds
12:53 PM 90.0 °F 102.5 °F 77.0 °F 65% 30.00 in 10.0 mi West 13.8 mph 21.9 mph N/A   Partly Cloudy
1:53 PM 91.0 °F 102.9 °F 75.9 °F 61% 29.99 in 10.0 mi West 16.1 mph - N/A   Partly Cloudy
2:53 PM 91.9 °F 103.9 °F 75.9 °F 59% 29.97 in 10.0 mi West 11.5 mph - N/A   Clear
3:53 PM 91.9 °F 105.9 °F 77.0 °F 62% 29.95 in 10.0 mi WSW 15.0 mph - N/A   Clear
4:53 PM 91.0 °F 104.2 °F 77.0 °F 63% 29.95 in 10.0 mi West 13.8 mph - N/A   Partly Cloudy
5:53 PM 89.1 °F 101.4 °F 77.0 °F 67% 29.95 in 10.0 mi West 15.0 mph - N/A   Clear
6:53 PM 88.0 °F 103.1 °F 79.0 °F 75% 29.95 in 10.0 mi West 11.5 mph - N/A   Scattered Clouds
7:53 PM 84.9 °F 100.3 °F 81.0 °F 88% 29.96 in 10.0 mi West 9.2 mph - N/A   Scattered Clouds
8:53 PM 84.0 °F 99.9 °F 82.0 °F 94% 29.97 in 10.0 mi West 9.2 mph - N/A   Partly Cloudy
9:53 PM 84.0 °F 99.9 °F 82.0 °F 94% 29.98 in 10.0 mi West 8.1 mph - N/A   Clear
10:53 PM 84.0 °F 99.9 °F 82.0 °F 94% 29.99 in 10.0 mi WSW 6.9 mph - N/A   Clear
11:53 PM 82.9 °F 95.9 °F 81.0 °F 94% 29.98 in 10.0 mi West 8.1 mph - N/A   Clear